GW5225 Weather Reports


time (UTC)temp
C
wind
direction
speed
KPH
gust
KPH
rain 1hr
cm
rain 24hr
cm
rain mn
cm
humidity
%
barometer
mb
20260508075059 8 71 0.0 3.2 0.00 0.05 0.05 70 975.6
20260508074600 8 357 0.0 3.2 0.03 0.05 0.05 69 976.0
20260508074059 8 55 0.0 1.6 0.03 0.05 0.05 69 976.0
20260508073558 8 297 1.6 4.8 0.03 0.05 0.05 69 976.0
20260508073058 8 326 4.8 6.4 0.03 0.05 0.05 69 975.6
20260508072558 8 329 0.0 6.4 0.03 0.05 0.05 69 975.6
20260508072058 8 124 0.0 4.8 0.03 0.05 0.05 71 975.6
20260508071057 8 304 0.0 3.2 0.03 0.05 0.05 72 976.0
20260508070057 7 218 0.0 9.7 0.03 0.05 0.05 75 976.3
20260508065556 7 242 0.0 3.2 0.05 0.05 0.05 79 976.3
20260508065055 7 236 0.0 3.2 0.05 0.05 0.05 79 976.3
20260508064556 7 238 0.0 1.6 0.03 0.03 0.03 82 976.0
20260508064055 7 129 0.0 1.6 0.03 0.03 0.03 82 976.0
20260508063555 7 304 0.0 1.6 0.03 0.03 0.03 83 976.0
20260508063055 7 315 0.0 1.6 0.03 0.03 0.03 81 976.0
20260508062555 7 69 0.0 1.6 0.03 0.03 0.03 82 976.3
20260508062054 7 242 0.0 0.0 0.03 0.03 0.03 81 976.0
20260508061557 7 212 0.0 0.0 0.03 0.03 0.03 80 976.0
20260508061055 7 44 0.0 0.0 0.03 0.03 0.03 78 976.0
20260508060553 7 44 0.0 0.0 0.03 0.03 0.03 77 976.0
20260508060053 7 44 0.0 0.0 0.03 0.03 0.03 77 976.0
20260508055553 7 186 0.0 1.6 0.00 0.00 0.00 75 976.0
20260508055053 7 186 0.0 1.6 0.00 0.00 0.00 75 976.0
20260508054553 8 61 0.0 1.6 0.00 0.00 0.00 72 976.0
20260508054052 8 37 0.0 0.0 0.00 0.00 0.00 74 976.0
20260508053552 8 29 0.0 1.6 0.00 0.00 0.00 71 976.3
20260508053052 8 117 0.0 1.6 0.00 0.00 0.00 72 976.3
20260508052551 8 242 0.0 0.0 0.00 0.00 0.00 71 976.3
20260508052052 8 242 0.0 1.6 0.00 0.00 0.00 70 976.3
20260508051551 8 38 0.0 1.6 0.00 0.00 0.00 73 976.0
20260508051051 8 28 0.0 1.6 0.00 0.00 0.00 71 976.3
20260508050551 8 63 0.0 1.6 0.00 0.00 0.00 68 976.0
20260508050050 8 242 0.0 0.0 0.00 0.00 0.00 67 976.3
20260508045550 8 62 0.0 1.6 0.00 0.00 0.00 67 976.3
20260508045049 8 37 0.0 1.6 0.00 0.00 0.00 65 976.3
20260508044549 8 37 0.0 0.0 0.00 0.00 0.00 65 976.3
20260508044049 8 124 0.0 1.6 0.00 0.00 0.00 64 976.3
20260508043048 8 102 0.0 3.2 0.00 0.00 0.00 63 976.7
20260508042048 8 37 0.0 1.6 0.00 0.00 0.00 61 976.3
20260508041551 8 117 0.0 1.6 0.00 0.00 0.00 60 976.3
20260508041047 8 304 0.0 3.2 0.00 0.00 0.00 60 976.3
20260508040547 8 129 0.0 3.2 0.00 0.00 0.00 61 976.3
20260508040047 8 296 0.0 3.2 0.00 0.00 0.00 61 976.7
20260508035547 8 336 0.0 3.2 0.00 0.00 0.00 62 976.7
20260508035046 8 297 0.0 1.6 0.00 0.00 0.00 63 976.7
20260508034546 8 49 0.0 1.6 0.00 0.00 0.00 64 976.3
20260508033546 8 322 0.0 3.2 0.00 0.00 0.00 68 976.3
20260508033045 8 113 0.0 3.2 0.00 0.00 0.00 69 976.0
20260508032545 8 60 3.2 3.2 0.00 0.00 0.00 68 976.3
20260508032045 7 316 0.0 3.2 0.00 0.00 0.00 68 976.3
20260508031545 7 135 0.0 3.2 0.00 0.00 0.00 68 976.7
20260508031044 7 322 1.6 3.2 0.00 0.00 0.00 69 976.3
20260508030544 7 50 0.0 0.0 0.00 0.00 0.00 69 976.3
20260508030044 7 50 0.0 0.0 0.00 0.00 0.00 71 976.3
20260508025543 7 62 0.0 1.6 0.00 0.00 0.00 65 976.3
20260508025044 7 76 0.0 1.6 0.00 0.00 0.00 65 976.3
20260508024543 7 207 0.0 1.6 0.00 0.00 0.00 66 976.3
20260508024043 7 233 0.0 1.6 0.00 0.00 0.00 66 976.3
20260508023042 7 217 0.0 1.6 0.00 0.00 0.00 65 976.3
20260508022542 7 269 0.0 1.6 0.00 0.00 0.00 65 976.3
20260508022045 7 50 0.0 1.6 0.00 0.00 0.00 65 976.3
20260508021541 7 322 0.0 0.0 0.00 0.00 0.00 66 976.0
20260508021041 7 322 0.0 0.0 0.00 0.00 0.00 64 976.3
20260508020041 7 37 0.0 0.0 0.00 0.00 0.00 64 976.3
20260508015540 7 37 0.0 0.0 0.00 0.00 0.00 62 976.0
20260508015040 7 135 0.0 0.0 0.00 0.00 0.00 62 976.0
20260508014540 8 135 0.0 1.6 0.00 0.00 0.00 60 976.0
20260508014039 8 135 0.0 1.6 0.00 0.00 0.00 61 976.0
20260508013539 8 142 0.0 0.0 0.00 0.00 0.00 62 976.0
20260508013039 8 246 0.0 0.0 0.00 0.00 0.00 66 976.0
20260508012539 8 55 0.0 0.0 0.00 0.00 0.00 68 976.0
20260508011539 8 230 0.0 0.0 0.00 0.00 0.00 63 975.6
20260508011037 8 242 0.0 0.0 0.00 0.00 0.00 60 975.6
20260508010537 8 117 0.0 0.0 0.00 0.00 0.00 64 975.6
20260508010037 8 117 0.0 0.0 0.00 0.00 0.00 57 975.6
20260508005536 9 117 0.0 0.0 0.00 0.00 0.00 60 975.6
20260508005030 10 44 0.0 3.2 0.00 0.00 0.00 53 975.6
20260508004531 10 52 0.0 1.6 0.00 0.00 0.00 49 975.6
20260508004030 10 217 0.0 0.0 0.00 0.00 0.00 48 975.6
20260508003033 10 37 0.0 3.2 0.00 0.00 0.00 47 975.6
20260508002529 11 319 1.6 4.8 0.00 0.00 0.00 46 975.6
20260508001534 11 17 0.0 8.0 0.00 0.00 0.00 45 975.3
20260508001033 11 318 6.4 8.0 0.00 0.00 0.00 44 975.3
20260508000533 11 313 3.2 8.0 0.00 0.00 0.00 43 975.3
20260508000033 11 323 4.8 8.0 0.00 0.00 0.00 43 975.3
20260507235533 11 293 0.0 9.7 0.00 0.00 0.00 42 975.3
20260507235034 12 324 3.2 9.7 0.00 0.00 0.00 41 975.0
20260507234533 12 256 6.4 14.5 0.00 0.00 0.00 41 975.3
20260507234033 12 299 9.7 14.5 0.00 0.00 0.00 41 975.0
20260507233533 12 309 6.4 12.9 0.00 0.00 0.00 40 975.0
20260507232533 12 260 0.0 8.0 0.00 0.00 0.00 41 975.3
20260507231531 12 322 6.4 16.1 0.00 0.00 0.00 42 975.0
20260507231031 12 343 4.8 16.1 0.00 0.00 0.00 40 975.0
20260507230532 12 292 9.7 16.1 0.00 0.00 0.00 39 975.0
20260507230031 13 277 8.0 14.5 0.00 0.00 0.00 39 975.3
20260507225034 13 335 0.0 12.9 0.00 0.00 0.00 38 975.0
20260507224530 13 347 1.6 11.3 0.00 0.00 0.00 37 975.0
20260507224030 13 305 6.4 9.7 0.00 0.00 0.00 39 975.0
20260507223530 13 301 3.2 9.7 0.00 0.00 0.00 41 975.3
20260507223029 12 312 3.2 12.9 0.00 0.00 0.00 42 975.3
20260507222530 12 337 3.2 12.9 0.00 0.00 0.00 42 975.3
20260507222029 12 325 4.8 16.1 0.00 0.00 0.00 41 975.3
20260507221029 13 314 9.7 14.5 0.00 0.00 0.00 39 975.3
20260507220528 12 334 8.0 14.5 0.00 0.00 0.00 42 975.0
20260507220028 12 294 4.8 19.3 0.00 0.00 0.00 44 975.0
20260507215028 13 281 16.1 19.3 0.00 0.00 0.00 40 975.0
20260507214027 12 289 4.8 20.9 0.00 0.00 0.00 42 974.6
20260507213527 13 339 8.0 20.9 0.00 0.00 0.00 40 975.0
20260507213026 13 332 9.7 19.3 0.00 0.00 0.00 42 975.0
20260507212526 12 313 3.2 14.5 0.00 0.00 0.00 43 974.6
20260507212026 12 356 6.4 17.7 0.00 0.00 0.00 44 974.6
20260507211525 13 322 9.7 17.7 0.00 0.00 0.00 42 974.6
20260507211025 12 307 4.8 12.9 0.00 0.00 0.00 43 974.6
20260507210525 12 354 6.4 12.9 0.00 0.00 0.00 43 974.3
20260507210025 13 322 4.8 17.7 0.00 0.00 0.00 44 974.3
20260507205524 12 323 3.2 19.3 0.00 0.00 0.00 43 974.3
20260507205028 13 321 8.0 19.3 0.00 0.00 0.00 42 974.3
20260507204524 13 286 9.7 14.5 0.00 0.00 0.00 42 974.6
20260507204023 13 6 6.4 20.9 0.00 0.00 0.00 43 974.3
20260507202523 13 328 8.0 14.5 0.00 0.00 0.00 42 973.9
20260507202023 13 15 9.7 17.7 0.00 0.00 0.00 41 974.3
20260507201522 13 14 3.2 17.7 0.00 0.00 0.00 41 974.3
20260507201022 13 282 3.2 20.9 0.00 0.00 0.00 42 973.9
20260507200022 13 327 4.8 16.1 0.00 0.00 0.00 41 974.3
20260507195521 13 296 4.8 19.3 0.00 0.00 0.00 40 974.6
20260507194521 14 307 9.7 14.5 0.00 0.00 0.00 38 974.3
20260507194021 13 289 11.3 14.5 0.00 0.00 0.00 41 974.6
20260507193521 13 328 4.8 17.7 0.00 0.00 0.00 41 974.6
20260507193020 13 281 14.5 17.7 0.00 0.00 0.00 41 974.6
20260507192020 13 316 4.8 14.5 0.00 0.00 0.00 40 974.6
20260507191520 13 359 4.8 14.5 0.00 0.00 0.00 42 974.6
20260507190518 13 283 12.9 17.7 0.00 0.00 0.00 42 974.6
20260507190018 12 293 8.0 17.7 0.00 0.00 0.00 42 975.0
20260507185518 12 287 8.0 14.5 0.00 0.00 0.00 42 974.6
20260507185017 13 298 6.4 20.9 0.00 0.00 0.00 42 975.0
20260507183517 13 280 4.8 9.7 0.00 0.00 0.00 42 974.6
20260507183019 13 310 4.8 17.7 0.00 0.00 0.00 42 974.6
20260507182516 12 326 3.2 17.7 0.00 0.00 0.00 42 975.0
20260507182016 13 292 6.4 19.3 0.00 0.00 0.00 42 974.6
20260507181516 13 289 6.4 20.9 0.00 0.00 0.00 41 975.0
20260507180516 13 341 4.8 16.1 0.00 0.00 0.00 40 975.0
20260507180015 13 302 6.4 16.1 0.00 0.00 0.00 40 975.0
20260507175515 13 317 6.4 12.9 0.00 0.00 0.00 41 975.0
20260507175015 13 335 3.2 17.7 0.00 0.00 0.00 42 975.0
20260507174514 13 301 8.0 17.7 0.00 0.00 0.00 39 975.0
20260507173514 13 294 11.3 14.5 0.00 0.00 0.00 40 975.0
20260507172013 13 235 3.2 9.7 0.00 0.00 0.00 42 975.0
20260507171513 13 336 8.0 14.5 0.00 0.00 0.00 39 975.3
20260507171012 13 280 11.3 14.5 0.00 0.00 0.00 40 975.0
20260507170513 12 295 4.8 17.7 0.00 0.00 0.00 39 975.0
20260507170012 12 291 11.3 17.7 0.00 0.00 0.00 38 975.6
20260507165011 13 280 6.4 16.1 0.00 0.00 0.00 38 975.3
20260507164511 12 309 9.7 16.1 0.00 0.00 0.00 40 975.3
20260507164011 12 355 3.2 19.3 0.00 0.00 0.00 40 975.3
20260507163510 12 317 11.3 19.3 0.00 0.00 0.00 41 975.3
20260507163014 12 302 11.3 17.7 0.00 0.00 0.00 40 975.3
20260507162509 12 299 4.8 17.7 0.00 0.00 0.00 41 975.3
20260507162009 12 291 4.8 17.7 0.00 0.00 0.00 42 975.3
20260507161509 12 244 3.2 16.1 0.00 0.00 0.00 40 975.3
20260507161008 12 250 4.8 16.1 0.00 0.00 0.00 40 975.3
20260507160508 12 292 8.0 14.5 0.00 0.00 0.00 41 975.3
20260507160008 12 274 1.6 17.7 0.00 0.00 0.00 41 975.3
20260507155507 12 294 9.7 17.7 0.00 0.00 0.00 42 975.3
20260507155007 12 267 8.0 17.7 0.00 0.00 0.00 43 975.3
20260507154506 12 309 3.2 12.9 0.00 0.00 0.00 42 975.3
20260507153506 12 277 1.6 14.5 0.00 0.00 0.00 42 975.3
20260507153006 11 303 1.6 11.3 0.00 0.00 0.00 42 975.3
20260507152506 12 225 4.8 11.3 0.00 0.00 0.00 40 975.3
20260507152005 12 318 3.2 9.7 0.00 0.00 0.00 45 975.6
20260507151006 11 284 4.8 17.7 0.00 0.00 0.00 45 975.3
20260507150506 11 212 6.4 17.7 0.00 0.00 0.00 44 975.6
20260507150006 11 243 3.2 12.9 0.00 0.00 0.00 46 975.6
20260507145505 11 173 1.6 12.9 0.00 0.00 0.00 46 975.6
20260507145004 11 305 3.2 17.7 0.00 0.00 0.00 51 975.6
20260507144505 11 297 4.8 17.7 0.00 0.00 0.00 48 975.3
20260507143504 11 226 4.8 11.3 0.00 0.00 0.00 53 975.6
20260507143004 11 275 0.0 12.9 0.00 0.00 0.00 51 975.3
20260507142503 11 288 6.4 19.3 0.00 0.00 0.00 52 975.6
20260507142007 11 277 8.0 19.3 0.00 0.00 0.00 54 975.6
20260507141503 11 326 0.0 9.7 0.00 0.00 0.00 53 975.6
20260507140503 10 283 8.0 11.3 0.00 0.00 0.00 56 976.0
20260507140002 10 281 8.0 12.9 0.00 0.00 0.00 55 975.6
20260507135502 10 262 3.2 9.7 0.00 0.00 0.00 57 976.0
20260507135002 10 283 3.2 9.7 0.00 0.00 0.00 58 976.0
20260507134502 10 356 3.2 12.9 0.00 0.00 0.00 59 976.0
20260507133501 9 342 3.2 12.9 0.00 0.00 0.00 61 976.0
20260507133001 10 288 6.4 11.3 0.00 0.00 0.00 59 976.0
20260507132000 9 254 3.2 8.0 0.00 0.00 0.00 63 976.3
20260507131459 9 336 3.2 8.0 0.00 0.00 0.00 63 976.0
20260507130500 8 229 0.0 9.7 0.00 0.00 0.00 66 976.0
20260507124958 8 311 1.6 4.8 0.00 0.00 0.00 72 976.0
20260507124458 8 144 0.0 6.4 0.00 0.00 0.00 73 976.3
20260507123958 8 216 6.4 6.4 0.00 0.00 0.00 73 976.0
20260507123457 8 296 3.2 4.8 0.00 0.00 0.00 77 976.0
20260507122957 7 16 0.0 4.8 0.00 0.00 0.00 77 976.0
20260507122457 7 337 1.6 4.8 0.00 0.00 0.00 79 976.0
20260507120957 6 229 0.0 4.8 0.00 0.00 0.00 84 976.0
20260507120456 6 203 3.2 3.2 0.00 0.00 0.00 86 976.0
20260507115956 6 127 1.6 3.2 0.00 0.00 0.00 90 976.0
20260507115455 5 193 0.0 3.2 0.00 0.00 0.00 93 976.3
20260507114955 5 0 1.6 1.6 0.00 0.00 0.00 94 976.0
20260507114455 5 256 0.0 1.6 0.00 0.00 0.00 94 976.0
20260507113454 4 147 0.0 0.0 0.00 0.00 0.00 94 976.0
20260507112431 3 142 0.0 0.0 0.00 0.00 0.00 94 976.0
20260507111930 3 142 0.0 0.0 0.00 0.00 0.00 94 976.0
20260507111431 3 50 0.0 0.0 0.00 0.00 0.00 94 975.6
20260507110930 3 66 0.0 0.0 0.00 0.00 0.00 94 976.0
20260507110430 3 110 0.0 0.0 0.00 0.00 0.00 93 975.6
20260507104430 3 128 0.0 0.0 0.00 0.00 0.00 95 975.6
20260507103430 3 37 0.0 0.0 0.00 0.00 0.00 98 975.6
20260507102929 3 37 0.0 0.0 0.00 0.00 0.00 88 975.6
20260507102431 3 37 0.0 0.0 0.00 0.00 0.00 89 975.6
20260507101930 3 37 0.0 0.0 0.00 0.00 0.00 89 975.6
20260507100419 3 293 0.0 0.0 0.00 0.03 0.00 95 975.6
20260507095915 3 293 0.0 0.0 0.00 0.03 0.00 95 975.6
20260507095415 3 293 0.0 0.0 0.00 0.03 0.00 95 975.6
20260507094414 3 44 0.0 0.0 0.00 0.08 0.00 94 975.3
20260507093914 3 44 0.0 0.0 0.00 0.10 0.00 94 975.3
20260507093414 3 44 0.0 0.0 0.00 0.10 0.00 94 975.6
20260507092914 3 44 0.0 0.0 0.00 0.13 0.00 94 975.6
20260507092414 3 44 0.0 0.0 0.00 0.13 0.00 93 975.6
20260507091914 3 44 0.0 0.0 0.00 0.15 0.00 93 975.6
20260507091413 3 44 0.0 0.0 0.00 0.18 0.00 93 975.6
20260507090412 3 142 0.0 0.0 0.00 0.23 0.00 93 975.6
20260507085912 3 66 0.0 0.0 0.00 0.23 0.00 92 975.6
20260507085412 3 44 0.0 0.0 0.00 0.23 0.00 92 975.6
20260507084912 3 44 0.0 0.0 0.00 0.23 0.00 92 975.6
20260507084411 3 229 0.0 0.0 0.00 0.25 0.00 92 975.6
20260507083911 3 186 0.0 0.0 0.00 0.25 0.00 92 975.6
20260507083411 3 186 0.0 0.0 0.00 0.25 0.00 92 976.0
20260507082911 3 50 0.0 0.0 0.00 0.28 0.00 91 975.6
20260507082410 3 315 0.0 0.0 0.00 0.28 0.00 91 975.6
20260507081910 3 249 0.0 0.0 0.00 0.28 0.00 91 975.6
20260507081410 3 25 0.0 0.0 0.00 0.30 0.00 91 975.6
20260507080910 4 32 0.0 0.0 0.00 0.33 0.00 91 975.6
20260507080410 4 32 0.0 0.0 0.00 0.36 0.00 90 975.6
20260507075910 4 32 0.0 0.0 0.00 0.41 0.00 90 975.6